TimeEET,TemperatureF,Dew PointF,Humidity,Sea Level PressureIn,VisibilityMPH,Wind Direction,Wind SpeedMPH,Gust SpeedMPH,PrecipitationIn,Events,Conditions,WindDirDegrees,DateUTC
12:00 AM,71.6,53.6,53,29.89,-9999.0,North,6.9,-,N/A,,Clear,350,2013-11-13 22:00:00
1:00 AM,71.6,46.4,41,29.89,-9999.0,North,6.9,-,N/A,,Clear,350,2013-11-13 23:00:00
2:00 AM,71.6,44.6,38,29.89,-9999.0,North,8.1,-,N/A,,Clear,360,2013-11-14 00:00:00
3:00 AM,71.6,44.6,38,29.89,-9999.0,North,10.4,-,N/A,,Clear,360,2013-11-14 01:00:00
4:00 AM,71.6,46.4,41,29.89,-9999.0,North,8.1,-,N/A,,Clear,350,2013-11-14 02:00:00
5:00 AM,71.6,48.2,43,29.89,-9999.0,North,8.1,-,N/A,,Clear,360,2013-11-14 03:00:00
6:00 AM,69.8,48.2,46,29.89,-9999.0,North,6.9,-,N/A,,Clear,350,2013-11-14 04:00:00
7:00 AM,71.6,48.2,43,29.92,-9999.0,North,9.2,-,N/A,,Clear,360,2013-11-14 05:00:00
8:00 AM,78.8,50.0,36,29.92,-9999.0,North,10.4,-,N/A,,Clear,360,2013-11-14 06:00:00
9:00 AM,80.6,51.8,37,29.92,-9999.0,NNE,12.7,-,N/A,,Clear,20,2013-11-14 07:00:00
10:00 AM,84.2,51.8,33,29.92,-9999.0,NNE,11.5,-,N/A,,Clear,20,2013-11-14 08:00:00
11:00 AM,86.0,51.8,31,29.89,-9999.0,NNE,9.2,-,N/A,,Clear,20,2013-11-14 09:00:00
12:00 PM,87.8,53.6,31,29.89,-9999.0,NNE,8.1,-,N/A,,Clear,30,2013-11-14 10:00:00
1:00 PM,89.6,53.6,29,29.86,-9999.0,NE,8.1,-,N/A,,Clear,50,2013-11-14 11:00:00
2:00 PM,89.6,50.0,26,29.86,-9999.0,ENE,4.6,-,N/A,,Clear,60,2013-11-14 12:00:00
3:00 PM,89.6,50.0,26,29.86,-9999.0,ESE,4.6,-,N/A,,Clear,120,2013-11-14 13:00:00
4:00 PM,84.2,51.8,33,29.86,-9999.0,SSE,3.5,-,N/A,,Clear,160,2013-11-14 14:00:00
5:00 PM,78.8,55.4,44,29.86,-9999.0,Variable,1.2,-,N/A,,Clear,0,2013-11-14 15:00:00
6:00 PM,75.2,55.4,50,29.86,-9999.0,Calm,Calm,-,N/A,,Clear,0,2013-11-14 16:00:00
7:00 PM,71.6,53.6,53,29.86,-9999.0,North,2.3,-,N/A,,Clear,360,2013-11-14 17:00:00
8:00 PM,73.4,55.4,53,29.89,-9999.0,West,2.3,-,N/A,,Clear,260,2013-11-14 18:00:00
9:00 PM,71.6,50.0,46,29.89,-9999.0,Calm,Calm,-,N/A,,Clear,0,2013-11-14 19:00:00
10:00 PM,69.8,50.0,49,29.89,-9999.0,North,1.2,-,N/A,,Clear,350,2013-11-14 20:00:00
11:00 PM,69.8,50.0,49,29.86,-9999.0,North,3.5,-,N/A,,Clear,360,2013-11-14 21:00:00